Weather in Tyoploe

Russia / Tula Oblast     53°36′57″N   37°35′31″E
temp.,
°C
wind,
m/s
gust,
m/s
humid.,
%
clouds,
%
prec.,
mm/h
press.,
hPa
HPBL,
m
9 december, thu
thu900:00−2nne5898100 0.0 1017273
03:00−2nne5798100 0.1 1017253
06:00−3nne5996100 0.1 1018265
09:00−3nne5995100 0.2 1020272
12:00−3ne5894100 0.1 1020254
15:00−3ne5895100 0.2 1022310
18:00−3ne51094100 0.0 1023330
21:00−4ne5994100 0.1 1025308
10 december, fri
fri1000:00−4ene5994100 0.0 1026311
03:00−5ene5992100 0.0 1027269
06:00−5e589397 0.0 1028254
09:00−5e599397 0.0 1029277
12:00−3e589297 0.0 1029311
15:00−3e599486 0.0 1029331
18:00−4e5109548 0.0 1030278
21:00−4ese5119529 0.0 1030283
11 december, sat
sat1100:00−4ese5119421 0.0 1031289
03:00−5ese5109512 0.0 1031257
06:00−5ese5119447 0.0 1031256
09:00−6ese5129219 0.0 1032286
12:00−4ese512875 0.0 1031357
15:00−4ese5118551 0.0 1031330
18:00−5ese51384100 0.0 1032316
21:00−4ese61382100 0.0 1032322
12 december, sun
sun1200:00−4se5128667 0.0 1033297
03:00−4se5118894 0.0 1033242
06:00−4se4118869 0.0 1033235
09:00−4se4108833 0.0 1034223
12:00−3se5118393 0.0 1034291
15:00−3se410825 0.0 1033255
18:00−4se5128278 0.0 1033258
21:00−4se51280100 0.0 1033275
13 december, mon
mon1300:00−4se51378100 0.0 1033284
03:00−4se51278100 0.0 1032268
06:00−4se61375100 0.0 1031285
09:00−4se61374100 0.0 1031318
12:00−3se61471100 0.0 1030370
15:00−2se51268100 0.0 1029344
18:00−3se51367100 0.0 1029324
21:00−3se51367100 0.0 1029321